Hourly Data Report for September 14, 2019

TORONTO CITY
ONTARIO
Current Station Operator: ECCC - MSC

43°40'00.000" N
79°24'00.000" W
112.50 m
6158355
71508
XTO

Download Data

Hourly Data (September 2019)
Hourly Data Report for September 14, 2019
TIME
LST
Temp Definition
°C
Dew Point Definition
°C
Rel Hum Definition
%
Precip. Amount Definition
mm

Wind Dir Definition
10's deg

Wind Spd Definition
km/h
Visibility Definition
km
Stn Press Definition
kPa
Hmdx Definition


Wind Chill Definition


Weather Definition


00:00 19.5 17.2 87 0.6       100.31     LegendNANA
01:00 19.5 16.7 84 0.0       100.33     LegendNANA
02:00 19.7 17.1 85 0.0       100.28     LegendNANA
03:00 20.1 17.3 84 0.0       100.28 26   LegendNANA
04:00 19.7 17.0 84 0.0       100.31     LegendNANA
05:00 18.8 12.3 66 0.0       100.39     LegendNANA
06:00 17.6 11.9 69 0.0       100.43     LegendNANA
07:00 17.3 11.8 70 0.0       100.50     LegendNANA
08:00 18.0 11.5 65 0.0       100.56     LegendNANA
09:00 18.8 10.3 58 0.0       100.60     LegendNANA
10:00 19.8 10.4 55 0.0       100.59     LegendNANA
11:00 20.2 10.1 52 0.0       100.60     LegendNANA
12:00 20.7 10.2 51 0.0       100.58     LegendNANA
13:00 21.6 9.8 47 0.0       100.56     LegendNANA
14:00 22.2 8.7 42 0.0       100.54     LegendNANA
15:00 22.3 8.2 40 0.0       100.54     LegendNANA
16:00 21.9 7.2 39 0.0       100.54     LegendNANA
17:00 21.8 6.3 36 0.0       100.57     LegendNANA
18:00 21.0 6.6 39 0.0       100.61     LegendNANA
19:00 19.8 7.9 46 0.0       100.66     LegendNANA
20:00 18.9 8.1 49 0.0       100.69     LegendNANA
21:00 17.8 8.2 53 0.0       100.72     LegendNANA
22:00 16.5 8.9 61 0.0       100.74     LegendNANA
23:00 16.2 9.0 62 0.0       100.76     LegendNANA

Notes on Data Quality.

Legend

  • E = Estimated
  • M = Missing
  • NA = Not Available*
  • [empty] = Indicates an unobserved value
Date modified: